Location: Ludlow
(41.4750°N, 81.5850°W)
Time: 14:33:56
(UTC+00:00)

Daily predictions for brighter satellites

Satellite Brightness Start Highest point End
(mag) Time Altitude Azimuth Time Altitude Azimuth Time Altitude Azimuth
Meteor 2-10 Rocket 4.3 12:00:17 10° S 12:05:59 67° E 12:11:34 10° NNE
Cosmos 1844 Rocket 3.2 12:01:44 10° NW 12:06:57 39° WSW 12:12:08 10° S
Cosmos 1812 Rocket 4.4 12:03:11 10° SW 12:07:00 29° WNW 12:10:52 10° NNW
Cosmos 1340 Rocket 3.7 12:06:09 10° SW 12:09:28 26° WNW 12:12:49 10° NNW
Cosmos 1300 4.2 12:08:00 10° WSW 12:10:26 16° WNW 12:12:53 10° NNW
Envisat 3.2 12:06:17 10° NNE 12:11:24 79° ESE 12:16:28 10° S
NOSS 0 Rocket 4.4 12:08:53 10° SSW 12:15:05 72° ESE 12:21:19 10° NNE
Cosmos 1934 Rocket 4.0 12:09:11 10° NNW 12:15:16 66° W 12:21:26 10° S
Lacrosse 5 rocket 1.8 12:11:21 10° NW 12:15:51 67° NE 12:20:06 10° SE
IRS-1C Rocket 4.2 22:59:06 10° SSE 23:04:21 85° WSW 23:09:39 10° NNW
NOAA 12 4.1 23:03:10 10° SSE 23:08:22 76° ENE 23:13:38 10° N
SL-16 R/B 2.3 23:02:59 10° NNW 23:08:42 90° WSW 23:14:21 10° SSE
Cosmos 1939 Rocket 4.3 23:07:20 10° ESE 23:09:54 17° ENE 23:12:31 10° NNE
Cosmos 2082 4.3 23:08:33 10° SW 23:14:03 58° WNW 23:19:39 10° NNE
Cosmos 2297 Rocket 3.9 23:12:07 10° WSW 23:17:07 32° WNW 23:22:09 10° N
Cosmos 2263 Rocket 2.9 23:14:42 10° SSE 23:19:30 31° ESE 23:24:21 10° NE
Cosmos 2221 3.4 23:17:20 10° NNE 23:21:03 28° ENE 23:24:46 10° SE
USA 102 4.3 23:16:20 10° SE 23:21:17 31° E 23:23:25 10° NNE
Cosmos 1603 4.3 23:16:49 10° N 23:21:59 34° ENE 23:27:04 10° ESE
Envisat 3.2 23:20:48 10° S 23:25:53 80° WSW 23:31:00 10° NNW
SMAP 4.4 23:22:12 10° S 23:26:38 44° W 23:31:05 10° NNW
Cosmos 2251 Rocket 3.7 23:21:22 10° NNW 23:26:42 81° WSW 23:32:02 10° SSE
Cosmos-2242 4.2 23:23:17 10° NNW 23:27:24 47° W 23:31:28 10° SSW
Cosmos 2227 Rocket 4.1 23:26:16 10° WSW 23:31:03 28° NW 23:35:51 10° N
Cosmos 1437 4.2 23:29:15 10° SE 23:31:20 17° E 23:31:56 16° ENE
Cosmos 1821 Rocket 4.4 23:25:38 10° SSE 23:31:27 40° E 23:37:13 10° NNE
H-2A R/B 3.8 23:34:57 12° NE 23:34:57 12° NE 23:36:15 10° NE
Cosmos 2058 4.1 23:31:30 10° SE 23:34:38 21° E 23:37:39 11° NE
ATLAS 3B R/B 4.1 23:37:02 10° SE 23:40:34 15° ESE 23:41:50 14° E
STARLINK-67 2.2 23:39:50 10° SW 23:42:21 79° SE 23:43:33 27° ENE
Meteor 1-11 4.3 23:38:23 10° S 23:43:58 84° W 23:49:35 10° N
Meteor 1-27 4.1 23:41:17 10° N 23:46:52 72° E 23:52:27 10° SSE
Cosmos 407 Rocket 3.8 23:43:57 10° N 23:48:57 42° ENE 23:53:51 10° SE
Cosmos 1943 3.5 23:43:48 10° NNW 23:49:11 43° ENE 23:54:33 10° SE
SKYMED 2 3.9 23:45:45 10° N 23:50:05 70° WNW 23:54:23 10° SSW
Cosmos 1371 Rocket 4.2 23:45:21 10° S 23:50:19 49° ESE 23:55:20 10° NNE
USA 267 4.0 23:44:20 10° NE 23:50:35 49° NNW 23:56:49 10° WSW
NOSS 3-2 (C) 4.1 23:46:47 10° S 23:51:42 32° ESE 23:54:52 20° ENE
Cosmos 1190 Rocket 4.5 23:47:07 10° N 23:52:05 39° ENE 23:57:02 10° SE
Atlas Centaur 2 3.7 23:50:58 10° SW 23:53:38 17° S 23:56:37 10° SE
Starlink AS 4.1 23:51:36 10° NNW 23:54:04 24° NNE 23:54:09 24° NNE
Starlink BA 4.0 23:51:46 10° NNW 23:54:14 24° NNE 23:54:19 24° NNE
Starlink AU 4.0 23:52:01 10° NNW 23:54:29 24° NNE 23:54:34 24° NNE
CENTAUR R/B 3.3 23:49:54 10° SSE 23:54:35 26° ESE 23:56:50 21° ENE
Starlink AT 4.0 23:52:16 10° NNW 23:54:45 24° NNE 23:54:48 24° NNE
GPS 2-05 Rocket1 4.0 23:52:56 10° SW 23:54:50 19° S 23:55:30 17° SSE
Starlink BB 4.0 23:52:29 10° NNW 23:54:58 24° NNE 23:55:01 24° NNE
Starlink BC 4.0 23:52:41 10° NNW 23:55:10 24° NNE 23:55:13 24° NNE
Cosmos 2098 4.4 23:52:10 10° S 23:55:20 81° E 23:59:19 10° N
Starlink BK 4.0 23:52:55 10° NNW 23:55:24 24° NNE 23:55:26 24° NNE
Starlink AY 4.0 23:53:10 10° NNW 23:55:39 24° NNE 23:55:40 24° NNE
Starlink AW 4.0 23:53:24 10° NNW 23:55:53 24° NNE 23:55:53 24° NNE
Starlink BJ 4.0 23:53:34 10° NNW 23:56:03 24° NNE 23:56:03 24° NNE
Starlink AV 4.0 23:53:50 10° NNW 23:56:19 24° NNE 23:56:19 24° NNE
Starlink BD 4.0 23:54:03 10° NNW 23:56:31 25° NNE 23:56:31 25° NNE
Starlink BE 4.0 23:54:12 10° NNW 23:56:44 25° NNE 23:56:44 25° NNE
Starlink BM 4.0 23:54:30 10° NNW 23:56:58 25° NNE 23:56:58 25° NNE
Starlink AX 4.0 23:54:41 10° NNW 23:57:09 25° NNE 23:57:09 25° NNE
Starlink BH 4.0 23:54:55 10° NNW 23:57:22 25° NNE 23:57:22 25° NNE
